Flag for Germany Weather past 2 weeks in Bretten, Baden-Württemberg, Germany

Now
79 °F

Thundershowers. Partly sunny.


Feels Like: 80 °F
Forecast: 63 / 73 °F
Wind: 5 mph from Southwest

Location: Baden Wurttemberg - Neuostheim

Current Time: Jul 8, 2015 at 12:13:17 AM

Latest Report: Jul 7, 2015 at 10:20 PM


Visibility: N/A

Pressure: 29.80 "Hg

Humidity: 51%

Dew point: 59 °F

Location of BrettenLocation

Historic Weather in Bretten — Graph

°F

Bretten temperature yesterday

Maximum temperature yesterday: 95 °F (at 4:20 PM)
Minimum temperature yesterday: 63 °F (at 5:20 AM)
Average temperature yesterday: 82 °F

Past Weeks' High & Low Weather Summary

 TemperatureHumidityPressure
High100 °F (Jul 4, 6:20 PM)100% (Jun 25, 4:50 AM)30.21 "Hg (Jun 25, 4:50 AM)
Low50 °F (Jun 23, 5:20 AM)24% (Jul 1, 2:50 PM)29.71 "Hg (Jul 7, 5:20 PM)
Average77 °F50%30.09 "Hg
* Reported Jun 23 5:20 AM — Jul 7 10:20 PM, Bretten, Weather by CustomWeather, © 2015

Note: Actual official high and low records may vary slightly from our data, if they occured in-between our weather recording intervals... More about our weather records

Advertising

Bretten weather history for previous 24 hours

 ConditionsComfort  
Time TempWeatherWind HumidityBarometerVisibility
10:20 PM
Tue, Jul 7
79 °FThundershowers. Partly sunny.5 mph51%29.80 "HgN/A
9:20 PM79 °FPassing clouds.9 mph58%29.74 "HgN/A
8:50 PM79 °FSunny.3 mph74%29.74 "Hg10 mi
8:20 PM79 °FSunny.3 mph84%29.74 "Hg10 mi
7:50 PM79 °FSunny.3 mph84%29.74 "Hg10 mi
7:20 PM79 °FPassing clouds.5 mph79%29.74 "HgN/A
6:50 PM81 °FSunny.2 mph70%29.74 "Hg10 mi
6:20 PM82 °FThunderstorms. Broken clouds.7 mph66%29.74 "HgN/A
5:50 PM91 °FThundershowers. Scattered clouds.6 mph41%29.74 "HgN/A
5:20 PM95 °FThundershowers. Passing clouds.13 mph36%29.71 "HgN/A
4:50 PM95 °FPassing clouds.10 mph36%29.74 "HgN/A
4:20 PM95 °FPassing clouds.10 mph36%29.77 "HgN/A
3:50 PM93 °FPassing clouds.12 mph36%29.80 "HgN/A
3:20 PM91 °FPassing clouds.10 mph38%29.80 "HgN/A
2:50 PM91 °FPassing clouds.8 mph34%29.83 "HgN/A
2:20 PM90 °FPassing clouds.7 mph36%29.83 "HgN/A
1:50 PM90 °FPassing clouds.10 mph36%29.86 "HgN/A
1:20 PM90 °FSunny.6 mph31%29.86 "Hg10 mi
12:50 PM88 °FPassing clouds.7 mph33%29.86 "HgN/A
12:20 PM88 °FSunny.2 mph33%29.86 "Hg10 mi
11:50 AM88 °FSunny.2 mph33%29.89 "Hg10 mi
11:20 AM84 °FSunny.3 mph35%29.89 "Hg10 mi
10:50 AM82 °FSunny.2 mph37%29.92 "Hg10 mi
10:20 AM81 °FSunny.3 mph37%29.92 "Hg10 mi
9:50 AM79 °FSunny.2 mph37%29.92 "Hg10 mi
9:20 AM77 °FSunny.2 mph44%29.95 "Hg10 mi
8:50 AM75 °FSunny.2 mph47%29.95 "Hg10 mi
8:20 AM73 °FSunny.2 mph47%29.95 "Hg10 mi
7:50 AM72 °FSunny.1 mph53%29.98 "Hg10 mi
7:20 AM68 °FSunny.2 mph60%29.98 "Hg10 mi
6:50 AM68 °FSunny.2 mph64%29.98 "Hg10 mi
6:20 AM66 °FClear.3 mph68%29.98 "Hg10 mi
5:50 AM63 °FClear.2 mph77%29.98 "Hg10 mi
5:20 AM63 °FClear.1 mph77%29.98 "Hg10 mi
Weather by CustomWeather, © 2015

See weather overviewHow to use our weather pages